Weather History for Istanbul, Turkey

Change the Weather History Date:

Sunday, October 10, 2010

  Actual Average Record
Temperature  
Mean Temperature 54 °F -  
Max Temperature 60 °F 63 °F 75 °F (2001)
Min Temperature 48 °F 52 °F 50 °F (2010)
Degree Days  
Heating Degree Days 11    
Growing Degree Days 4 (Base 50)    
Moisture  
Dew Point 43 °F    
Average Humidity 62    
Maximum Humidity 82    
Minimum Humidity 33    
Precipitation  
Precipitation 0.00 in - - ()
Sea Level Pressure  
Sea Level Pressure 29.93 in    
Wind  
Wind Speed 8 mph ()    
Max Wind Speed 16 mph    
Max Gust Speed -    
Visibility 5.8 miles    
Events Rain    
Averages and records for this station are not official NWS values.
T = Trace of Precipitation, MM = Missing Value Source: Averaged Metar Reports

Daily Weather History Graph

Daily Weather History Graph

Search for Another Location

Airport:

Trip Planner

Search our weather history database for the weather conditions in past years. The results will help you decide how hot, cold, wet, or windy it might be!

Date:

Astronomy

Oct. 10, 2010 Rise Set
Actual Time 7:10 AM EEST 6:32 PM EEST
Civil Twilight 6:42 AM EEST 7:00 PM EEST
Nautical Twilight 6:11 AM EEST 7:31 PM EEST
Astronomical Twilight 5:39 AM EEST 8:03 PM EEST
Moon 10:21 AM EEST (10/10) 7:57 PM EEST (10/10)
Length of Visible Light 12h 17m
Length of Day
11h 22m
Waxing Crescent, 9% of the Moon is Illuminated
Oct 10
Waxing Crescent
Oct 15
First Quarter
Oct 23
Full
Oct 30
Last Quarter
Nov 6
New

Hourly Weather History & Observations

Time (EEST) Temp. Dew Point Humidity Pressure Visibility Wind Dir Wind Speed Gust Speed Precip Events Conditions
12:20 AM 50.0 °F 42.8 °F 76% 29.98 in 3.7 mi West 11.5 mph - N/A Rain Light Rain Showers
12:50 AM 50.0 °F 44.6 °F 82% 29.98 in 3.7 mi WNW 5.8 mph - N/A Rain Light Rain Showers
1:20 AM 50.0 °F 44.6 °F 82% 29.95 in 4.3 mi WSW 4.6 mph - N/A Rain Light Rain Showers
1:50 AM 51.8 °F 44.6 °F 76% 29.95 in 3.7 mi WSW 8.1 mph - N/A Rain Light Rain Showers
2:20 AM 53.6 °F 42.8 °F 67% 29.92 in 4.3 mi SW 13.8 mph - N/A   Mostly Cloudy
2:50 AM 53.6 °F 41.0 °F 62% 29.92 in 6.2 mi WSW 12.7 mph - N/A   Mostly Cloudy
3:00 AM 54 °F 41 °F 51% 29.94 in 6 mi WSW 12.7 mph - -   Partly Cloudy
3:50 AM 55.4 °F 42.8 °F 63% 29.89 in 6.2 mi SW 15.0 mph - N/A   Mostly Cloudy
4:20 AM 55.4 °F 41.0 °F 58% 29.89 in 6.2 mi WSW 16.1 mph - N/A   Mostly Cloudy
4:50 AM 55.4 °F 44.6 °F 67% 29.89 in 4.3 mi SW 16.1 mph - N/A Rain Light Rain Showers
5:20 AM 50.0 °F 42.8 °F 76% 29.89 in 3.7 mi West 13.8 mph - N/A Rain Light Rain Showers
5:50 AM 51.8 °F 44.6 °F 76% 29.89 in 3.7 mi WNW 6.9 mph - N/A Rain Light Rain Showers
6:20 AM 51.8 °F 44.6 °F 76% 29.89 in 6.2 mi West 6.9 mph - N/A Rain Light Rain Showers
6:50 AM 51.8 °F 44.6 °F 76% 29.92 in 6.2 mi West 3.5 mph - N/A Rain Light Rain Showers
7:20 AM 51.8 °F 42.8 °F 71% 29.92 in 6.2 mi WNW 6.9 mph - N/A Rain Light Rain Showers
7:50 AM 51.8 °F 42.8 °F 71% 29.92 in 6.2 mi WNW 4.6 mph - N/A Rain Light Rain Showers
8:20 AM 51.8 °F 42.8 °F 71% 29.92 in 6.2 mi Variable 1.2 mph - N/A Rain Light Rain Showers
8:50 AM 51.8 °F 41.0 °F 67% 29.92 in 6.2 mi Variable 2.3 mph - N/A Rain Light Rain Showers
9:00 AM 52 °F 40 °F 54% 29.93 in 6 mi 2.3 mph - - Rain Light Rain Showers
9:20 AM 53.6 °F 41.0 °F 62% 29.92 in 6.2 mi West 3.5 mph - N/A   Mostly Cloudy
9:50 AM 53.6 °F 44.6 °F 72% 29.92 in 6.2 mi SW 8.1 mph - N/A   Mostly Cloudy
10:20 AM 53.6 °F 44.6 °F 72% 29.92 in 6.2 mi SW 9.2 mph - N/A   Mostly Cloudy
10:50 AM 55.4 °F 44.6 °F 67% 29.92 in 6.2 mi SW 8.1 mph - N/A   Mostly Cloudy
11:20 AM 55.4 °F 46.4 °F 72% 29.92 in 6.2 mi SSW 11.5 mph - N/A   Mostly Cloudy
11:50 AM 57.2 °F 42.8 °F 59% 29.92 in 6.2 mi SW 10.4 mph - N/A   Mostly Cloudy
12:20 PM 57.2 °F 41.0 °F 55% 29.95 in 6.2 mi SW 11.5 mph - N/A   Mostly Cloudy
12:50 PM 57.2 °F 41.0 °F 55% 29.92 in 6.2 mi WSW 9.2 mph - N/A   Mostly Cloudy
1:20 PM 59.0 °F 44.6 °F 59% 29.92 in 6.2 mi SW 10.4 mph - N/A   Mostly Cloudy
1:50 PM 59.0 °F 42.8 °F 55% 29.92 in 6.2 mi SW 10.4 mph - N/A   Mostly Cloudy
2:20 PM 59.0 °F 41.0 °F 51% 29.92 in 6.2 mi SW 11.5 mph - N/A   Mostly Cloudy
2:50 PM 60.8 °F 39.2 °F 45% 29.92 in 6.2 mi SW 11.5 mph - N/A   Mostly Cloudy
3:00 PM 60 °F 39 °F 33% 29.92 in 6 mi SW 11.5 mph - -   Partly Cloudy
3:20 PM 60.8 °F 41.0 °F 48% 29.92 in 6.2 mi SW 11.5 mph - N/A   Scattered Clouds
3:50 PM 60.8 °F 42.8 °F 52% 29.92 in 6.2 mi SW 12.7 mph - N/A   Scattered Clouds
4:20 PM 59.0 °F 42.8 °F 55% 29.92 in 6.2 mi SW 12.7 mph - N/A   Scattered Clouds
4:50 PM 59.0 °F 42.8 °F 55% 29.92 in 6.2 mi SW 11.5 mph - N/A   Scattered Clouds
5:20 PM 59.0 °F 44.6 °F 59% 29.92 in 6.2 mi SW 11.5 mph - N/A   Scattered Clouds
5:50 PM 59.0 °F 42.8 °F 55% 29.92 in 6.2 mi SW 10.4 mph - N/A   Scattered Clouds
6:20 PM 57.2 °F 42.8 °F 59% 29.92 in 6.2 mi SW 8.1 mph - N/A   Scattered Clouds
6:50 PM 59.0 °F 42.8 °F 55% 29.92 in 6.2 mi SW 8.1 mph - N/A   Partly Cloudy
7:20 PM 59.0 °F 41.0 °F 51% 29.95 in 6.2 mi WSW 6.9 mph - N/A   Partly Cloudy
7:50 PM 59.0 °F 41.0 °F 51% 29.95 in 6.2 mi West 4.6 mph - N/A   Partly Cloudy
8:20 PM 57.2 °F 41.0 °F 55% 29.95 in 6.2 mi WNW 4.6 mph - N/A   Scattered Clouds
8:50 PM 59.0 °F 41.0 °F 51% 29.95 in 6.2 mi WNW 3.5 mph - N/A   Scattered Clouds
9:00 PM 58 °F 42 °F 43% 29.97 in 6 mi WNW 3.5 mph - -   Scattered Clouds
9:20 PM 59.0 °F 41.0 °F 51% 29.95 in 6.2 mi WNW 4.6 mph - N/A   Scattered Clouds
9:50 PM 57.2 °F 42.8 °F 59% 29.95 in - WNW 4.6 mph - N/A   Clear
10:20 PM 53.6 °F 42.8 °F 67% 29.95 in - North 6.9 mph - N/A   Clear
10:50 PM 55.4 °F 44.6 °F 67% 29.95 in - North 8.1 mph - N/A   Clear
11:20 PM 53.6 °F 42.8 °F 67% 29.98 in - NNW 6.9 mph - N/A   Clear
11:50 PM 53.6 °F 42.8 °F 67% 29.95 in - NNW 6.9 mph - N/A   Clear